La Porte, IN

8:42 PM CDT on March 28, 2017 (GMT -0500)
La Porte Municipal

Weather History for KPPO - January, 2013

Change the Weather History Date:

Wednesday, January 9, 2013

  Actual Average (KSBN) Record (KSBN)
Temperature  
Mean Temperature 35 °F -  
Max Temperature 46 °F 28 °F 48 °F (1950)
Min Temperature 23 °F 15 °F -9 °F (1962)
Degree Days  
Heating Degree Days 30    
Moisture  
Dew Point 26 °F    
Average Humidity 66    
Maximum Humidity 90    
Minimum Humidity 33    
Precipitation  
Precipitation 0.00 in - - ()
Sea Level Pressure  
Sea Level Pressure 30.27 in    
Wind  
Wind Speed 9 mph (WSW)    
Max Wind Speed 16 mph    
Max Gust Speed 30 mph    
Visibility 10 miles    
Events Rain    
Averages and records for this station are not official NWS values.
T = Trace of Precipitation, MM = Missing Value Source: NWS Daily Summary

Daily Weather History Graph

Daily Weather History Graph

Search for Another Location

Airport or City:

Trip Planner

Search our weather history database for the weather conditions in past years. The results will help you decide how hot, cold, wet, or windy it might be!

Date:

Astronomy

Jan. 09, 2013 Rise Set
Actual Time 7:13 AM CST 4:35 PM CST
Civil Twilight 6:42 AM CST 5:06 PM CST
Nautical Twilight 6:07 AM CST 5:41 PM CST
Astronomical Twilight 5:34 AM CST 6:14 PM CST
Moon 4:51 AM CST (1/9) 2:36 PM CST (1/9)
Length of Visible Light 10h 24m
Length of Day
9h 22m
Waning Crescent, 6% of the Moon is Illuminated
Jan 9
Waning Crescent
Jan 11
New
Jan 18
First Quarter
Jan 26
Full
Feb 3
Last Quarter

Hourly Weather History & Observations

Time (CST) Temp. Windchill Dew Point Humidity Pressure Visibility Wind Dir Wind Speed Gust Speed Precip Events Conditions
12:15 AM 34.5 °F 27.3 °F 27.5 °F 76% 30.07 in 10.0 mi SSW 9.2 mph - N/A   Clear
12:35 AM 34.2 °F 27.5 °F 27.5 °F 77% 30.07 in 10.0 mi SSW 8.1 mph - N/A   Clear
12:55 AM 33.8 °F 27.0 °F 27.5 °F 78% 30.07 in 10.0 mi SSW 8.1 mph - N/A   Clear
1:15 AM 33.8 °F 27.0 °F 28.0 °F 79% 30.06 in 10.0 mi SSW 8.1 mph - N/A   Mostly Cloudy
1:35 AM 34.3 °F 29.2 °F 28.8 °F 80% 30.06 in 10.0 mi SSW 5.8 mph - N/A   Overcast
1:55 AM 34.5 °F 27.9 °F 29.3 °F 81% 30.07 in 10.0 mi SSW 8.1 mph - N/A   Mostly Cloudy
2:15 AM 35.4 °F 29.0 °F 29.8 °F 80% 30.08 in 10.0 mi SSW 8.1 mph - N/A   Overcast
2:35 AM 36.9 °F 29.1 °F 30.9 °F 79% 30.08 in 10.0 mi SW 11.5 mph - N/A   Overcast
2:55 AM 37.4 °F 29.3 °F 31.1 °F 78% 30.08 in 10.0 mi SW 12.7 mph - N/A   Light Drizzle
3:15 AM 37.2 °F 29.6 °F 31.6 °F 80% 30.06 in 10.0 mi SSW 11.5 mph - N/A Rain Rain
3:35 AM 37.0 °F 29.3 °F 32.0 °F 82% 30.06 in 10.0 mi SW 11.5 mph - N/A   Overcast
3:55 AM 37.4 °F 30.3 °F 32.2 °F 81% 30.07 in 10.0 mi SW 10.4 mph - N/A   Overcast
4:15 AM 38.7 °F 29.8 °F 32.0 °F 77% 30.07 in 10.0 mi WSW 16.1 mph 21.9 mph N/A   Scattered Clouds
4:35 AM 38.7 °F 30.5 °F 32.0 °F 77% 30.08 in 10.0 mi WSW 13.8 mph - N/A   Clear
4:55 AM 38.3 °F 30.5 °F 32.0 °F 78% 30.09 in 10.0 mi WSW 12.7 mph - N/A   Clear
5:15 AM 37.6 °F 30.0 °F 31.5 °F 79% 30.10 in 10.0 mi WSW 11.5 mph - N/A   Clear
5:35 AM 36.9 °F 29.1 °F 31.1 °F 80% 30.10 in 10.0 mi WSW 11.5 mph - N/A   Clear
5:55 AM 36.3 °F 28.4 °F 31.3 °F 82% 30.11 in 10.0 mi WSW 11.5 mph - N/A   Scattered Clouds
6:15 AM 35.6 °F 27.5 °F 30.9 °F 83% 30.13 in 10.0 mi WSW 11.5 mph - N/A   Scattered Clouds
6:35 AM 35.1 °F 26.9 °F 30.4 °F 83% 30.14 in 10.0 mi WSW 11.5 mph - N/A   Scattered Clouds
6:55 AM 35.2 °F 27.1 °F 30.0 °F 81% 30.16 in 10.0 mi WSW 11.5 mph 16.1 mph N/A   Scattered Clouds
7:15 AM 34.9 °F 25.7 °F 29.8 °F 82% 30.18 in 10.0 mi WSW 13.8 mph 19.6 mph N/A   Clear
7:35 AM 34.7 °F 26.4 °F 29.7 °F 82% 30.19 in 10.0 mi WSW 11.5 mph - N/A   Clear
7:55 AM 34.9 °F 27.1 °F 29.5 °F 81% 30.21 in 10.0 mi WSW 10.4 mph - N/A   Clear
8:15 AM 34.7 °F 27.5 °F 29.7 °F 82% 30.21 in 10.0 mi WSW 9.2 mph - N/A   Clear
8:35 AM 35.1 °F 27.9 °F 29.8 °F 81% 30.22 in 10.0 mi WSW 9.2 mph - N/A   Clear
8:55 AM 35.6 °F 28.6 °F 29.8 °F 80% 30.22 in 10.0 mi WSW 9.2 mph - N/A   Clear
9:15 AM 35.8 °F 28.3 °F 29.8 °F 79% 30.23 in 10.0 mi WSW 10.4 mph - N/A   Clear
9:35 AM 36.1 °F 29.3 °F 29.8 °F 78% 30.24 in 10.0 mi WSW 9.2 mph - N/A   Clear
9:55 AM 36.7 °F 30.5 °F 30.0 °F 77% 30.25 in 10.0 mi WSW 8.1 mph - N/A   Clear
10:15 AM 37.4 °F 30.8 °F 30.2 °F 75% 30.25 in 10.0 mi WSW 9.2 mph - N/A   Clear
10:35 AM 38.5 °F 30.7 °F 30.0 °F 72% 30.25 in 10.0 mi WSW 12.7 mph 16.1 mph N/A   Clear
10:55 AM 39.0 °F 32.3 °F 30.2 °F 71% 30.25 in 10.0 mi WSW 10.4 mph - N/A   Clear
11:15 AM 40.3 °F 33.9 °F 30.4 °F 68% 30.25 in 10.0 mi WSW 10.4 mph - N/A   Clear
11:35 AM 41.4 °F 34.7 °F 30.4 °F 65% 30.25 in 10.0 mi WSW 11.5 mph - N/A   Clear
11:55 AM 42.4 °F 35.3 °F 30.2 °F 62% 30.24 in 10.0 mi West 13.8 mph - N/A   Clear
12:15 PM 43.3 °F 36.5 °F 30.0 °F 59% 30.25 in 10.0 mi West 13.8 mph 18.4 mph N/A   Clear
12:35 PM 44.6 °F 38.1 °F 29.5 °F 55% 30.25 in 10.0 mi WSW 13.8 mph 18.4 mph N/A   Clear
12:55 PM 45.0 °F 39.7 °F 29.1 °F 54% 30.26 in 10.0 mi WSW 10.4 mph - N/A   Clear
1:15 PM 45.5 °F 39.9 °F 27.0 °F 48% 30.26 in 10.0 mi West 11.5 mph 20.7 mph N/A   Clear
1:35 PM 45.9 °F 39.4 °F 24.8 °F 44% 30.27 in 10.0 mi West 15.0 mph 20.7 mph N/A   Clear
1:55 PM 46.4 °F 41.1 °F 24.8 °F 43% 30.28 in 10.0 mi West 11.5 mph 17.3 mph N/A   Clear
2:15 PM 45.9 °F 41.7 °F 25.5 °F 45% 30.30 in 10.0 mi West 8.1 mph - N/A   Clear
2:35 PM 46.8 °F - 21.9 °F 37% 30.32 in 10.0 mi WNW 8.1 mph 21.9 mph N/A   Clear
2:55 PM 46.8 °F - 20.7 °F 36% 30.32 in 10.0 mi WNW 10.4 mph - N/A   Clear
3:15 PM 46.4 °F 41.1 °F 18.5 °F 33% 30.34 in 10.0 mi WNW 11.5 mph 29.9 mph N/A   Clear
3:35 PM 46.2 °F 42.2 °F 18.5 °F 33% 30.35 in 10.0 mi WNW 8.1 mph 18.4 mph N/A   Clear
3:55 PM 44.8 °F 39.4 °F 19.4 °F 36% 30.36 in 10.0 mi WNW 10.4 mph 19.6 mph N/A   Clear
4:15 PM 43.9 °F 39.9 °F 18.3 °F 36% 30.37 in 10.0 mi WNW 6.9 mph - N/A   Clear
4:35 PM 43.0 °F 39.5 °F 16.9 °F 35% 30.38 in 10.0 mi WNW 5.8 mph 16.1 mph N/A   Clear
4:55 PM 42.1 °F 38.4 °F 16.0 °F 35% 30.39 in 10.0 mi WNW 5.8 mph - N/A   Clear
5:15 PM 41.2 °F 37.3 °F 15.8 °F 36% 30.40 in 10.0 mi WNW 5.8 mph - N/A   Clear
5:35 PM 40.5 °F 34.1 °F 16.9 °F 39% 30.40 in 10.0 mi NW 10.4 mph - N/A   Clear
5:55 PM 40.1 °F 34.7 °F 16.7 °F 39% 30.41 in 10.0 mi NW 8.1 mph - N/A   Clear
6:15 PM 39.6 °F 31.3 °F 17.8 °F 41% 30.41 in 10.0 mi NW 15.0 mph 19.6 mph N/A   Clear
6:35 PM 39.2 °F 31.2 °F 19.0 °F 44% 30.41 in 10.0 mi NW 13.8 mph 19.6 mph N/A   Clear
6:55 PM 38.3 °F 30.9 °F 19.6 °F 47% 30.40 in 10.0 mi NW 11.5 mph 19.6 mph N/A   Clear
7:15 PM 38.5 °F 31.6 °F 19.4 °F 46% 30.41 in 10.0 mi NW 10.4 mph - N/A   Clear
7:35 PM 37.4 °F 30.8 °F 20.3 °F 50% 30.41 in 10.0 mi WNW 9.2 mph - N/A   Clear
7:55 PM 36.9 °F 30.7 °F 21.9 °F 55% 30.41 in 10.0 mi NW 8.1 mph - N/A   Scattered Clouds
8:15 PM 35.6 °F 28.6 °F 23.5 °F 62% 30.42 in 10.0 mi NW 9.2 mph - N/A   Scattered Clouds
8:35 PM 35.8 °F 31.9 °F 23.0 °F 60% 30.43 in 10.0 mi NW 4.6 mph - N/A   Scattered Clouds
8:55 PM 34.5 °F 31.6 °F 23.5 °F 64% 30.43 in 10.0 mi WNW 3.5 mph - N/A   Clear
9:15 PM 34.7 °F 31.8 °F 23.2 °F 63% 30.44 in 10.0 mi West 3.5 mph - N/A   Scattered Clouds
9:35 PM 31.5 °F 28.1 °F 23.2 °F 71% 30.45 in 10.0 mi West 3.5 mph - N/A   Scattered Clouds
9:55 PM 29.8 °F - 22.5 °F 74% 30.45 in 10.0 mi Calm Calm - N/A   Scattered Clouds
10:15 PM 27.3 °F 23.4 °F 23.5 °F 86% 30.46 in 10.0 mi SSW 3.5 mph - N/A   Clear
10:35 PM 27.5 °F - 22.6 °F 82% 30.46 in 10.0 mi Calm Calm - N/A   Clear
10:55 PM 26.1 °F - 22.1 °F 85% 30.48 in 10.0 mi Calm Calm - N/A   Clear
11:15 PM 24.8 °F - 21.9 °F 89% 30.48 in 10.0 mi Calm Calm - N/A   Clear
11:35 PM 24.1 °F - 21.6 °F 90% 30.50 in 10.0 mi Calm Calm - N/A   Clear
11:55 PM 23.2 °F - 20.7 °F 90% 30.51 in 10.0 mi Calm Calm - N/A   Clear